owner,sensor,date,latitude,longitude,sea_surface_height_above_sea_level,qcFlag 
COMPS,ioos:station:USF.COMPS:EGK:1,2010-01-01T00:00:00Z,27.6010,-82.7510,0.192,1111122 
COMPS,ioos:station:USF.COMPS:EGK:1,2010-01-01T00:06:00Z,27.6010,-82.7510,0.201,1111122 
COMPS,ioos:station:USF.COMPS:EGK:1,2010-01-01T00:12:00Z,27.6010,-82.7510,0.211,1111122 
COMPS,ioos:station:USF.COMPS:EGK:1,2010-01-01T00:18:00Z,27.6010,-82.7510,0.219,1111122 
COMPS,ioos:station:USF.COMPS:EGK:1,2010-01-01T00:24:00Z,27.6010,-82.7510,0.222,1111122 
COMPS,ioos:station:USF.COMPS:EGK:1,2010-01-01T00:30:00Z,27.6010,-82.7510,0.25,1111122 
COMPS,ioos:station:USF.COMPS:EGK:1,2010-01-01T00:36:00Z,27.6010,-82.7510,0.267,1111122 
COMPS,ioos:station:USF.COMPS:EGK:1,2010-01-01T00:42:00Z,27.6010,-82.7510,0.272,1111122 
COMPS,ioos:station:USF.COMPS:EGK:1,2010-01-01T00:48:00Z,27.6010,-82.7510,0.275,1111122 
COMPS,ioos:station:USF.COMPS:EGK:1,2010-01-01T00:54:00Z,27.6010,-82.7510,0.299,1111122 
COMPS,ioos:station:USF.COMPS:EGK:1,2010-01-01T01:00:00Z,27.6010,-82.7510,0.317,1111122 
COMPS,ioos:station:USF.COMPS:EGK:1,2010-01-01T01:06:00Z,27.6010,-82.7510,0.331,1111122 
COMPS,ioos:station:USF.COMPS:EGK:1,2010-01-01T01:12:00Z,27.6010,-82.7510,0.338,1111122 
COMPS,ioos:station:USF.COMPS:EGK:1,2010-01-01T01:18:00Z,27.6010,-82.7510,0.342,1111122 
COMPS,ioos:station:USF.COMPS:EGK:1,2010-01-01T01:24:00Z,27.6010,-82.7510,0.36,1111122 
COMPS,ioos:station:USF.COMPS:EGK:1,2010-01-01T01:30:00Z,27.6010,-82.7510,0.382,1111122 
COMPS,ioos:station:USF.COMPS:EGK:1,2010-01-01T01:36:00Z,27.6010,-82.7510,0.384,1111122 
COMPS,ioos:station:USF.COMPS:EGK:1,2010-01-01T01:42:00Z,27.6010,-82.7510,0.39,1111122 
COMPS,ioos:station:USF.COMPS:EGK:1,2010-01-01T01:48:00Z,27.6010,-82.7510,0.399,1111122 
COMPS,ioos:station:USF.COMPS:EGK:1,2010-01-01T01:54:00Z,27.6010,-82.7510,0.417,1111122 
COMPS,ioos:station:USF.COMPS:EGK:1,2010-01-01T02:00:00Z,27.6010,-82.7510,0.428,1111122 
COMPS,ioos:station:USF.COMPS:EGK:1,2010-01-01T02:06:00Z,27.6010,-82.7510,0.431,1111122 
COMPS,ioos:station:USF.COMPS:EGK:1,2010-01-01T02:12:00Z,27.6010,-82.7510,0.434,1111122 
COMPS,ioos:station:USF.COMPS:EGK:1,2010-01-01T02:18:00Z,27.6010,-82.7510,0.438,1111122 
COMPS,ioos:station:USF.COMPS:EGK:1,2010-01-01T02:24:00Z,27.6010,-82.7510,0.436,1111122 
COMPS,ioos:station:USF.COMPS:EGK:1,2010-01-01T02:30:00Z,27.6010,-82.7510,0.444,1111122 
COMPS,ioos:station:USF.COMPS:EGK:1,2010-01-01T02:36:00Z,27.6010,-82.7510,0.448,1111122 
COMPS,ioos:station:USF.COMPS:EGK:1,2010-01-01T02:42:00Z,27.6010,-82.7510,0.458,1111122 
COMPS,ioos:station:USF.COMPS:EGK:1,2010-01-01T02:48:00Z,27.6010,-82.7510,0.473,1111122 
COMPS,ioos:station:USF.COMPS:EGK:1,2010-01-01T02:54:00Z,27.6010,-82.7510,0.473,1111122 
COMPS,ioos:station:USF.COMPS:EGK:1,2010-01-01T03:00:00Z,27.6010,-82.7510,0.476,1111122 
COMPS,ioos:station:USF.COMPS:EGK:1,2010-01-01T03:06:00Z,27.6010,-82.7510,0.481,1111122 
COMPS,ioos:station:USF.COMPS:EGK:1,2010-01-01T03:12:00Z,27.6010,-82.7510,0.491,1111122 
COMPS,ioos:station:USF.COMPS:EGK:1,2010-01-01T03:18:00Z,27.6010,-82.7510,0.485,1111122 
COMPS,ioos:station:USF.COMPS:EGK:1,2010-01-01T03:24:00Z,27.6010,-82.7510,0.484,1111122 
COMPS,ioos:station:USF.COMPS:EGK:1,2010-01-01T03:30:00Z,27.6010,-82.7510,0.493,1111122 
COMPS,ioos:station:USF.COMPS:EGK:1,2010-01-01T03:36:00Z,27.6010,-82.7510,0.509,1111122 
COMPS,ioos:station:USF.COMPS:EGK:1,2010-01-01T03:42:00Z,27.6010,-82.7510,0.509,1111122 
COMPS,ioos:station:USF.COMPS:EGK:1,2010-01-01T03:48:00Z,27.6010,-82.7510,0.511,1111122 
COMPS,ioos:station:USF.COMPS:EGK:1,2010-01-01T03:54:00Z,27.6010,-82.7510,0.51,1111122 
COMPS,ioos:station:USF.COMPS:EGK:1,2010-01-01T04:00:00Z,27.6010,-82.7510,0.507,1111122 
COMPS,ioos:station:USF.COMPS:EGK:1,2010-01-01T04:06:00Z,27.6010,-82.7510,0.506,1111122 
COMPS,ioos:station:USF.COMPS:EGK:1,2010-01-01T04:12:00Z,27.6010,-82.7510,0.501,1111122 
COMPS,ioos:station:USF.COMPS:EGK:1,2010-01-01T04:18:00Z,27.6010,-82.7510,0.499,1111122 
COMPS,ioos:station:USF.COMPS:EGK:1,2010-01-01T04:24:00Z,27.6010,-82.7510,0.502,1111122 
COMPS,ioos:station:USF.COMPS:EGK:1,2010-01-01T04:30:00Z,27.6010,-82.7510,0.492,1111122 
COMPS,ioos:station:USF.COMPS:EGK:1,2010-01-01T04:36:00Z,27.6010,-82.7510,0.479,1111122 
COMPS,ioos:station:USF.COMPS:EGK:1,2010-01-01T04:42:00Z,27.6010,-82.7510,0.475,1111122 
COMPS,ioos:station:USF.COMPS:EGK:1,2010-01-01T04:48:00Z,27.6010,-82.7510,0.461,1111122 
COMPS,ioos:station:USF.COMPS:EGK:1,2010-01-01T04:54:00Z,27.6010,-82.7510,0.45,1111122 
COMPS,ioos:station:USF.COMPS:EGK:1,2010-01-01T05:00:00Z,27.6010,-82.7510,0.443,1111122 
COMPS,ioos:station:USF.COMPS:EGK:1,2010-01-01T05:06:00Z,27.6010,-82.7510,0.437,1111122 
COMPS,ioos:station:USF.COMPS:EGK:1,2010-01-01T05:12:00Z,27.6010,-82.7510,0.428,1111122 
COMPS,ioos:station:USF.COMPS:EGK:1,2010-01-01T05:18:00Z,27.6010,-82.7510,0.412,1111122 
COMPS,ioos:station:USF.COMPS:EGK:1,2010-01-01T05:24:00Z,27.6010,-82.7510,0.399,1111122 
COMPS,ioos:station:USF.COMPS:EGK:1,2010-01-01T05:30:00Z,27.6010,-82.7510,0.387,1111122 
COMPS,ioos:station:USF.COMPS:EGK:1,2010-01-01T05:36:00Z,27.6010,-82.7510,0.382,1111122 
COMPS,ioos:station:USF.COMPS:EGK:1,2010-01-01T05:42:00Z,27.6010,-82.7510,0.381,1111122 
COMPS,ioos:station:USF.COMPS:EGK:1,2010-01-01T05:48:00Z,27.6010,-82.7510,0.362,1111122 
COMPS,ioos:station:USF.COMPS:EGK:1,2010-01-01T05:54:00Z,27.6010,-82.7510,0.346,1111122 
COMPS,ioos:station:USF.COMPS:EGK:1,2010-01-01T06:00:00Z,27.6010,-82.7510,0.339,1111122 
COMPS,ioos:station:USF.COMPS:EGK:1,2010-01-01T06:06:00Z,27.6010,-82.7510,0.321,1111122 
COMPS,ioos:station:USF.COMPS:EGK:1,2010-01-01T06:12:00Z,27.6010,-82.7510,0.301,1111122 
COMPS,ioos:station:USF.COMPS:EGK:1,2010-01-01T06:18:00Z,27.6010,-82.7510,0.279,1111122 
COMPS,ioos:station:USF.COMPS:EGK:1,2010-01-01T06:24:00Z,27.6010,-82.7510,0.257,1111122 
COMPS,ioos:station:USF.COMPS:EGK:1,2010-01-01T06:30:00Z,27.6010,-82.7510,0.241,1111122 
COMPS,ioos:station:USF.COMPS:EGK:1,2010-01-01T06:36:00Z,27.6010,-82.7510,0.228,1111122 
COMPS,ioos:station:USF.COMPS:EGK:1,2010-01-01T06:42:00Z,27.6010,-82.7510,0.21,1111122 
COMPS,ioos:station:USF.COMPS:EGK:1,2010-01-01T06:48:00Z,27.6010,-82.7510,0.186,1111122 
COMPS,ioos:station:USF.COMPS:EGK:1,2010-01-01T06:54:00Z,27.6010,-82.7510,0.173,1111122 
COMPS,ioos:station:USF.COMPS:EGK:1,2010-01-01T07:00:00Z,27.6010,-82.7510,0.147,1111122 
COMPS,ioos:station:USF.COMPS:EGK:1,2010-01-01T07:06:00Z,27.6010,-82.7510,0.127,1111122 
COMPS,ioos:station:USF.COMPS:EGK:1,2010-01-01T07:12:00Z,27.6010,-82.7510,0.092,1111122 
COMPS,ioos:station:USF.COMPS:EGK:1,2010-01-01T07:18:00Z,27.6010,-82.7510,0.073,1111122 
COMPS,ioos:station:USF.COMPS:EGK:1,2010-01-01T07:24:00Z,27.6010,-82.7510,0.054,1111122 
COMPS,ioos:station:USF.COMPS:EGK:1,2010-01-01T07:30:00Z,27.6010,-82.7510,0.034,1111122 
COMPS,ioos:station:USF.COMPS:EGK:1,2010-01-01T07:36:00Z,27.6010,-82.7510,0.011,1111122 
COMPS,ioos:station:USF.COMPS:EGK:1,2010-01-01T07:42:00Z,27.6010,-82.7510,-0.016,1111122 
COMPS,ioos:station:USF.COMPS:EGK:1,2010-01-01T07:48:00Z,27.6010,-82.7510,-0.037,1111122 
COMPS,ioos:station:USF.COMPS:EGK:1,2010-01-01T07:54:00Z,27.6010,-82.7510,-0.058,1111122 
COMPS,ioos:station:USF.COMPS:EGK:1,2010-01-01T08:00:00Z,27.6010,-82.7510,-0.081,1111122 
COMPS,ioos:station:USF.COMPS:EGK:1,2010-01-01T08:06:00Z,27.6010,-82.7510,-0.106,1111122 
COMPS,ioos:station:USF.COMPS:EGK:1,2010-01-01T08:12:00Z,27.6010,-82.7510,-0.135,1111122 
COMPS,ioos:station:USF.COMPS:EGK:1,2010-01-01T08:18:00Z,27.6010,-82.7510,-0.157,1111122 
COMPS,ioos:station:USF.COMPS:EGK:1,2010-01-01T08:24:00Z,27.6010,-82.7510,-0.174,1111122 
COMPS,ioos:station:USF.COMPS:EGK:1,2010-01-01T08:30:00Z,27.6010,-82.7510,-0.185,1111122 
COMPS,ioos:station:USF.COMPS:EGK:1,2010-01-01T08:36:00Z,27.6010,-82.7510,-0.214,1111122 
COMPS,ioos:station:USF.COMPS:EGK:1,2010-01-01T08:42:00Z,27.6010,-82.7510,-0.243,1111122 
COMPS,ioos:station:USF.COMPS:EGK:1,2010-01-01T08:48:00Z,27.6010,-82.7510,-0.268,1111122 
COMPS,ioos:station:USF.COMPS:EGK:1,2010-01-01T08:54:00Z,27.6010,-82.7510,-0.295,1111122 
COMPS,ioos:station:USF.COMPS:EGK:1,2010-01-01T09:00:00Z,27.6010,-82.7510,-0.298,1111122 
COMPS,ioos:station:USF.COMPS:EGK:1,2010-01-01T09:06:00Z,27.6010,-82.7510,-0.313,1111122 
COMPS,ioos:station:USF.COMPS:EGK:1,2010-01-01T09:12:00Z,27.6010,-82.7510,-0.331,1111122 
COMPS,ioos:station:USF.COMPS:EGK:1,2010-01-01T09:18:00Z,27.6010,-82.7510,-0.343,1111122 
COMPS,ioos:station:USF.COMPS:EGK:1,2010-01-01T09:24:00Z,27.6010,-82.7510,-0.369,1111122 
COMPS,ioos:station:USF.COMPS:EGK:1,2010-01-01T09:30:00Z,27.6010,-82.7510,-0.418,1111122 
COMPS,ioos:station:USF.COMPS:EGK:1,2010-01-01T09:36:00Z,27.6010,-82.7510,-0.412,1111122 
COMPS,ioos:station:USF.COMPS:EGK:1,2010-01-01T09:42:00Z,27.6010,-82.7510,-0.414,1111122 
COMPS,ioos:station:USF.COMPS:EGK:1,2010-01-01T09:48:00Z,27.6010,-82.7510,-0.375,1111122 
COMPS,ioos:station:USF.COMPS:EGK:1,2010-01-01T09:54:00Z,27.6010,-82.7510,-0.349,1111122 
COMPS,ioos:station:USF.COMPS:EGK:1,2010-01-01T10:00:00Z,27.6010,-82.7510,-0.349,1111122 
COMPS,ioos:station:USF.COMPS:EGK:1,2010-01-01T10:06:00Z,27.6010,-82.7510,-0.349,1111122 
COMPS,ioos:station:USF.COMPS:EGK:1,2010-01-01T10:12:00Z,27.6010,-82.7510,-0.35,1111122 
COMPS,ioos:station:USF.COMPS:EGK:1,2010-01-01T10:18:00Z,27.6010,-82.7510,-0.379,1111122 
COMPS,ioos:station:USF.COMPS:EGK:1,2010-01-01T10:24:00Z,27.6010,-82.7510,-0.414,1111122 
COMPS,ioos:station:USF.COMPS:EGK:1,2010-01-01T10:30:00Z,27.6010,-82.7510,-0.414,1111122 
COMPS,ioos:station:USF.COMPS:EGK:1,2010-01-01T10:36:00Z,27.6010,-82.7510,-0.414,1111122 
COMPS,ioos:station:USF.COMPS:EGK:1,2010-01-01T10:42:00Z,27.6010,-82.7510,-0.414,1111122 
COMPS,ioos:station:USF.COMPS:EGK:1,2010-01-01T10:48:00Z,27.6010,-82.7510,-0.414,1111122 
COMPS,ioos:station:USF.COMPS:EGK:1,2010-01-01T10:54:00Z,27.6010,-82.7510,-0.413,1111122 
COMPS,ioos:station:USF.COMPS:EGK:1,2010-01-01T11:00:00Z,27.6010,-82.7510,-0.413,1111122 
COMPS,ioos:station:USF.COMPS:EGK:1,2010-01-01T11:06:00Z,27.6010,-82.7510,-0.413,1111122 
COMPS,ioos:station:USF.COMPS:EGK:1,2010-01-01T11:12:00Z,27.6010,-82.7510,-0.413,1111122 
COMPS,ioos:station:USF.COMPS:EGK:1,2010-01-01T11:18:00Z,27.6010,-82.7510,-0.414,1111122 
COMPS,ioos:station:USF.COMPS:EGK:1,2010-01-01T11:24:00Z,27.6010,-82.7510,-0.414,1111122 
COMPS,ioos:station:USF.COMPS:EGK:1,2010-01-01T11:30:00Z,27.6010,-82.7510,-0.413,1111122 
COMPS,ioos:station:USF.COMPS:EGK:1,2010-01-01T11:36:00Z,27.6010,-82.7510,-0.413,1111122 
COMPS,ioos:station:USF.COMPS:EGK:1,2010-01-01T11:42:00Z,27.6010,-82.7510,-0.413,1111122 
COMPS,ioos:station:USF.COMPS:EGK:1,2010-01-01T11:48:00Z,27.6010,-82.7510,-0.413,1111122 
COMPS,ioos:station:USF.COMPS:EGK:1,2010-01-01T11:54:00Z,27.6010,-82.7510,-0.413,1111122 
COMPS,ioos:station:USF.COMPS:EGK:1,2010-01-01T12:00:00Z,27.6010,-82.7510,-0.413,1111122 
COMPS,ioos:station:USF.COMPS:EGK:1,2010-01-01T12:06:00Z,27.6010,-82.7510,-0.413,1111122 
COMPS,ioos:station:USF.COMPS:EGK:1,2010-01-01T12:12:00Z,27.6010,-82.7510,-0.413,1111122 
COMPS,ioos:station:USF.COMPS:EGK:1,2010-01-01T12:18:00Z,27.6010,-82.7510,-0.413,1111122 
COMPS,ioos:station:USF.COMPS:EGK:1,2010-01-01T12:24:00Z,27.6010,-82.7510,-0.413,1111122 
COMPS,ioos:station:USF.COMPS:EGK:1,2010-01-01T12:30:00Z,27.6010,-82.7510,-0.414,1111122 
COMPS,ioos:station:USF.COMPS:EGK:1,2010-01-01T12:36:00Z,27.6010,-82.7510,-0.414,1111122 
COMPS,ioos:station:USF.COMPS:EGK:1,2010-01-01T12:42:00Z,27.6010,-82.7510,-0.414,1111122 
COMPS,ioos:station:USF.COMPS:EGK:1,2010-01-01T12:48:00Z,27.6010,-82.7510,-0.413,1111122 
COMPS,ioos:station:USF.COMPS:EGK:1,2010-01-01T12:54:00Z,27.6010,-82.7510,-0.413,1111122 
COMPS,ioos:station:USF.COMPS:EGK:1,2010-01-01T13:00:00Z,27.6010,-82.7510,-0.414,1111122 
COMPS,ioos:station:USF.COMPS:EGK:1,2010-01-01T13:06:00Z,27.6010,-82.7510,-0.413,1111122 
COMPS,ioos:station:USF.COMPS:EGK:1,2010-01-01T13:12:00Z,27.6010,-82.7510,-0.413,1111122 
COMPS,ioos:station:USF.COMPS:EGK:1,2010-01-01T13:18:00Z,27.6010,-82.7510,-0.414,1111122 
COMPS,ioos:station:USF.COMPS:EGK:1,2010-01-01T13:24:00Z,27.6010,-82.7510,-0.412,1111122 
COMPS,ioos:station:USF.COMPS:EGK:1,2010-01-01T13:30:00Z,27.6010,-82.7510,-0.412,1111122 
COMPS,ioos:station:USF.COMPS:EGK:1,2010-01-01T13:36:00Z,27.6010,-82.7510,-0.405,1111122 
COMPS,ioos:station:USF.COMPS:EGK:1,2010-01-01T13:42:00Z,27.6010,-82.7510,-0.389,1111122 
COMPS,ioos:station:USF.COMPS:EGK:1,2010-01-01T13:48:00Z,27.6010,-82.7510,-0.37,1111122 
COMPS,ioos:station:USF.COMPS:EGK:1,2010-01-01T13:54:00Z,27.6010,-82.7510,-0.359,1111122 
COMPS,ioos:station:USF.COMPS:EGK:1,2010-01-01T14:00:00Z,27.6010,-82.7510,-0.334,1111122 
COMPS,ioos:station:USF.COMPS:EGK:1,2010-01-01T14:06:00Z,27.6010,-82.7510,-0.32,1111122 
COMPS,ioos:station:USF.COMPS:EGK:1,2010-01-01T14:12:00Z,27.6010,-82.7510,-0.301,1111122 
COMPS,ioos:station:USF.COMPS:EGK:1,2010-01-01T14:18:00Z,27.6010,-82.7510,-0.278,1111122 
COMPS,ioos:station:USF.COMPS:EGK:1,2010-01-01T14:24:00Z,27.6010,-82.7510,-0.242,1111122 
COMPS,ioos:station:USF.COMPS:EGK:1,2010-01-01T14:30:00Z,27.6010,-82.7510,-0.224,1111122 
COMPS,ioos:station:USF.COMPS:EGK:1,2010-01-01T14:36:00Z,27.6010,-82.7510,-0.206,1111122 
COMPS,ioos:station:USF.COMPS:EGK:1,2010-01-01T14:42:00Z,27.6010,-82.7510,-0.21,1111122 
COMPS,ioos:station:USF.COMPS:EGK:1,2010-01-01T14:48:00Z,27.6010,-82.7510,-0.211,1111122 
COMPS,ioos:station:USF.COMPS:EGK:1,2010-01-01T14:54:00Z,27.6010,-82.7510,-0.203,1111122 
COMPS,ioos:station:USF.COMPS:EGK:1,2010-01-01T15:00:00Z,27.6010,-82.7510,-0.194,1111122 
COMPS,ioos:station:USF.COMPS:EGK:1,2010-01-01T15:06:00Z,27.6010,-82.7510,-0.187,1111122 
COMPS,ioos:station:USF.COMPS:EGK:1,2010-01-01T15:12:00Z,27.6010,-82.7510,-0.164,1111122 
COMPS,ioos:station:USF.COMPS:EGK:1,2010-01-01T15:18:00Z,27.6010,-82.7510,-0.123,1111122 
COMPS,ioos:station:USF.COMPS:EGK:1,2010-01-01T15:24:00Z,27.6010,-82.7510,-0.085,1111122 
COMPS,ioos:station:USF.COMPS:EGK:1,2010-01-01T15:30:00Z,27.6010,-82.7510,-0.059,1111122 
COMPS,ioos:station:USF.COMPS:EGK:1,2010-01-01T15:36:00Z,27.6010,-82.7510,-0.018,1111122 
COMPS,ioos:station:USF.COMPS:EGK:1,2010-01-01T15:42:00Z,27.6010,-82.7510,-0.01,1111122 
COMPS,ioos:station:USF.COMPS:EGK:1,2010-01-01T15:48:00Z,27.6010,-82.7510,0.008,1111122 
COMPS,ioos:station:USF.COMPS:EGK:1,2010-01-01T15:54:00Z,27.6010,-82.7510,-0.013,1111122 
COMPS,ioos:station:USF.COMPS:EGK:1,2010-01-01T16:00:00Z,27.6010,-82.7510,-0.004,1111122 
COMPS,ioos:station:USF.COMPS:EGK:1,2010-01-01T16:06:00Z,27.6010,-82.7510,0.017,1111122 
COMPS,ioos:station:USF.COMPS:EGK:1,2010-01-01T16:12:00Z,27.6010,-82.7510,0.084,1111122 
COMPS,ioos:station:USF.COMPS:EGK:1,2010-01-01T16:18:00Z,27.6010,-82.7510,0.112,1111122 
COMPS,ioos:station:USF.COMPS:EGK:1,2010-01-01T16:24:00Z,27.6010,-82.7510,0.136,1111122 
COMPS,ioos:station:USF.COMPS:EGK:1,2010-01-01T16:30:00Z,27.6010,-82.7510,0.139,1111122 
COMPS,ioos:station:USF.COMPS:EGK:1,2010-01-01T16:36:00Z,27.6010,-82.7510,0.118,1111122 
COMPS,ioos:station:USF.COMPS:EGK:1,2010-01-01T16:42:00Z,27.6010,-82.7510,0.132,1111122 
COMPS,ioos:station:USF.COMPS:EGK:1,2010-01-01T16:48:00Z,27.6010,-82.7510,0.127,1111122 
COMPS,ioos:station:USF.COMPS:EGK:1,2010-01-01T16:54:00Z,27.6010,-82.7510,0.143,1111122 
COMPS,ioos:station:USF.COMPS:EGK:1,2010-01-01T17:00:00Z,27.6010,-82.7510,0.119,1111122 
COMPS,ioos:station:USF.COMPS:EGK:1,2010-01-01T17:06:00Z,27.6010,-82.7510,0.094,1111122 
COMPS,ioos:station:USF.COMPS:EGK:1,2010-01-01T17:12:00Z,27.6010,-82.7510,0.089,1111122 
COMPS,ioos:station:USF.COMPS:EGK:1,2010-01-01T17:18:00Z,27.6010,-82.7510,0.11,1111122 
COMPS,ioos:station:USF.COMPS:EGK:1,2010-01-01T17:24:00Z,27.6010,-82.7510,0.139,1111122 
COMPS,ioos:station:USF.COMPS:EGK:1,2010-01-01T17:30:00Z,27.6010,-82.7510,0.151,1111122 
COMPS,ioos:station:USF.COMPS:EGK:1,2010-01-01T17:36:00Z,27.6010,-82.7510,0.137,1111122 
COMPS,ioos:station:USF.COMPS:EGK:1,2010-01-01T17:42:00Z,27.6010,-82.7510,0.096,1111122 
COMPS,ioos:station:USF.COMPS:EGK:1,2010-01-01T17:48:00Z,27.6010,-82.7510,0.051,1111122 
COMPS,ioos:station:USF.COMPS:EGK:1,2010-01-01T17:54:00Z,27.6010,-82.7510,0.061,1111122 
COMPS,ioos:station:USF.COMPS:EGK:1,2010-01-01T18:00:00Z,27.6010,-82.7510,0.059,1111122 
COMPS,ioos:station:USF.COMPS:EGK:1,2010-01-01T18:06:00Z,27.6010,-82.7510,0.076,1111122 
COMPS,ioos:station:USF.COMPS:EGK:1,2010-01-01T18:12:00Z,27.6010,-82.7510,0.07,1111122 
COMPS,ioos:station:USF.COMPS:EGK:1,2010-01-01T18:18:00Z,27.6010,-82.7510,0.032,1111122 
COMPS,ioos:station:USF.COMPS:EGK:1,2010-01-01T18:24:00Z,27.6010,-82.7510,0.007,1111122 
COMPS,ioos:station:USF.COMPS:EGK:1,2010-01-01T18:30:00Z,27.6010,-82.7510,-0.027,1111122 
COMPS,ioos:station:USF.COMPS:EGK:1,2010-01-01T18:36:00Z,27.6010,-82.7510,-0.045,1111122 
COMPS,ioos:station:USF.COMPS:EGK:1,2010-01-01T18:42:00Z,27.6010,-82.7510,-0.041,1111122 
COMPS,ioos:station:USF.COMPS:EGK:1,2010-01-01T18:48:00Z,27.6010,-82.7510,-0.026,1111122 
COMPS,ioos:station:USF.COMPS:EGK:1,2010-01-01T18:54:00Z,27.6010,-82.7510,-0.079,1111122 
COMPS,ioos:station:USF.COMPS:EGK:1,2010-01-01T19:00:00Z,27.6010,-82.7510,-0.118,1111122 
COMPS,ioos:station:USF.COMPS:EGK:1,2010-01-01T19:06:00Z,27.6010,-82.7510,-0.158,1111122 
COMPS,ioos:station:USF.COMPS:EGK:1,2010-01-01T19:12:00Z,27.6010,-82.7510,-0.171,1111122 
COMPS,ioos:station:USF.COMPS:EGK:1,2010-01-01T19:18:00Z,27.6010,-82.7510,-0.16,1111122 
COMPS,ioos:station:USF.COMPS:EGK:1,2010-01-01T19:24:00Z,27.6010,-82.7510,-0.115,1111122 
COMPS,ioos:station:USF.COMPS:EGK:1,2010-01-01T19:30:00Z,27.6010,-82.7510,-0.152,1111122 
COMPS,ioos:station:USF.COMPS:EGK:1,2010-01-01T19:36:00Z,27.6010,-82.7510,-0.145,1111122 
COMPS,ioos:station:USF.COMPS:EGK:1,2010-01-01T19:42:00Z,27.6010,-82.7510,-0.151,1111122 
COMPS,ioos:station:USF.COMPS:EGK:1,2010-01-01T19:48:00Z,27.6010,-82.7510,-0.154,1111122 
COMPS,ioos:station:USF.COMPS:EGK:1,2010-01-01T19:54:00Z,27.6010,-82.7510,-0.201,1111122 
COMPS,ioos:station:USF.COMPS:EGK:1,2010-01-01T20:00:00Z,27.6010,-82.7510,-0.194,1111122 
COMPS,ioos:station:USF.COMPS:EGK:1,2010-01-01T20:06:00Z,27.6010,-82.7510,-0.214,1111122 
COMPS,ioos:station:USF.COMPS:EGK:1,2010-01-01T20:12:00Z,27.6010,-82.7510,-0.205,1111122 
COMPS,ioos:station:USF.COMPS:EGK:1,2010-01-01T20:18:00Z,27.6010,-82.7510,-0.203,1111122 
COMPS,ioos:station:USF.COMPS:EGK:1,2010-01-01T20:24:00Z,27.6010,-82.7510,-0.219,1111122 
COMPS,ioos:station:USF.COMPS:EGK:1,2010-01-01T20:30:00Z,27.6010,-82.7510,-0.241,1111122 
COMPS,ioos:station:USF.COMPS:EGK:1,2010-01-01T20:36:00Z,27.6010,-82.7510,-0.259,1111122 
COMPS,ioos:station:USF.COMPS:EGK:1,2010-01-01T20:42:00Z,27.6010,-82.7510,-0.255,1111122 
COMPS,ioos:station:USF.COMPS:EGK:1,2010-01-01T20:48:00Z,27.6010,-82.7510,-0.269,1111122 
COMPS,ioos:station:USF.COMPS:EGK:1,2010-01-01T20:54:00Z,27.6010,-82.7510,-0.279,1111122 
COMPS,ioos:station:USF.COMPS:EGK:1,2010-01-01T21:00:00Z,27.6010,-82.7510,-0.282,1111122 
COMPS,ioos:station:USF.COMPS:EGK:1,2010-01-01T21:06:00Z,27.6010,-82.7510,-0.287,1111122 
COMPS,ioos:station:USF.COMPS:EGK:1,2010-01-01T21:12:00Z,27.6010,-82.7510,-0.266,1111122 
COMPS,ioos:station:USF.COMPS:EGK:1,2010-01-01T21:18:00Z,27.6010,-82.7510,-0.258,1111122 
COMPS,ioos:station:USF.COMPS:EGK:1,2010-01-01T21:24:00Z,27.6010,-82.7510,-0.267,1111122 
COMPS,ioos:station:USF.COMPS:EGK:1,2010-01-01T21:30:00Z,27.6010,-82.7510,-0.251,1111122 
COMPS,ioos:station:USF.COMPS:EGK:1,2010-01-01T21:36:00Z,27.6010,-82.7510,-0.228,1111122 
COMPS,ioos:station:USF.COMPS:EGK:1,2010-01-01T21:42:00Z,27.6010,-82.7510,-0.236,1111122 
COMPS,ioos:station:USF.COMPS:EGK:1,2010-01-01T21:48:00Z,27.6010,-82.7510,-0.221,1111122 
COMPS,ioos:station:USF.COMPS:EGK:1,2010-01-01T21:54:00Z,27.6010,-82.7510,-0.222,1111122 
COMPS,ioos:station:USF.COMPS:EGK:1,2010-01-01T22:00:00Z,27.6010,-82.7510,-0.222,1111122 
COMPS,ioos:station:USF.COMPS:EGK:1,2010-01-01T22:06:00Z,27.6010,-82.7510,-0.224,1111122 
COMPS,ioos:station:USF.COMPS:EGK:1,2010-01-01T22:12:00Z,27.6010,-82.7510,-0.214,1111122 
COMPS,ioos:station:USF.COMPS:EGK:1,2010-01-01T22:18:00Z,27.6010,-82.7510,-0.201,1111122 
COMPS,ioos:station:USF.COMPS:EGK:1,2010-01-01T22:24:00Z,27.6010,-82.7510,-0.172,1111122 
COMPS,ioos:station:USF.COMPS:EGK:1,2010-01-01T22:30:00Z,27.6010,-82.7510,-0.16,1111122 
COMPS,ioos:station:USF.COMPS:EGK:1,2010-01-01T22:36:00Z,27.6010,-82.7510,-0.172,1111122 
COMPS,ioos:station:USF.COMPS:EGK:1,2010-01-01T22:42:00Z,27.6010,-82.7510,-0.185,1111122 
COMPS,ioos:station:USF.COMPS:EGK:1,2010-01-01T22:48:00Z,27.6010,-82.7510,-0.179,1111122 
COMPS,ioos:station:USF.COMPS:EGK:1,2010-01-01T22:54:00Z,27.6010,-82.7510,-0.188,1111122 
COMPS,ioos:station:USF.COMPS:EGK:1,2010-01-01T23:00:00Z,27.6010,-82.7510,-0.18,1111122 
COMPS,ioos:station:USF.COMPS:EGK:1,2010-01-01T23:06:00Z,27.6010,-82.7510,-0.16,1111122 
COMPS,ioos:station:USF.COMPS:EGK:1,2010-01-01T23:12:00Z,27.6010,-82.7510,-0.144,1111122 
COMPS,ioos:station:USF.COMPS:EGK:1,2010-01-01T23:18:00Z,27.6010,-82.7510,-0.126,1111122 
COMPS,ioos:station:USF.COMPS:EGK:1,2010-01-01T23:24:00Z,27.6010,-82.7510,-0.129,1111122 
COMPS,ioos:station:USF.COMPS:EGK:1,2010-01-01T23:30:00Z,27.6010,-82.7510,-0.105,1111122 
COMPS,ioos:station:USF.COMPS:EGK:1,2010-01-01T23:36:00Z,27.6010,-82.7510,-0.107,1111122 
COMPS,ioos:station:USF.COMPS:EGK:1,2010-01-01T23:42:00Z,27.6010,-82.7510,-0.111,1111122 
COMPS,ioos:station:USF.COMPS:EGK:1,2010-01-01T23:48:00Z,27.6010,-82.7510,-0.093,1111122 
COMPS,ioos:station:USF.COMPS:EGK:1,2010-01-01T23:54:00Z,27.6010,-82.7510,-0.079,1111122 
COMPS,ioos:station:USF.COMPS:EGK:1,2010-01-02T00:00:00Z,27.6010,-82.7510,-0.081,1111122 
COMPS,ioos:station:USF.COMPS:EGK:1,2010-01-02T00:06:00Z,27.6010,-82.7510,-0.075,1111122 
COMPS,ioos:station:USF.COMPS:EGK:1,2010-01-02T00:12:00Z,27.6010,-82.7510,-0.069,1111122 
COMPS,ioos:station:USF.COMPS:EGK:1,2010-01-02T00:18:00Z,27.6010,-82.7510,-0.069,1111122 
COMPS,ioos:station:USF.COMPS:EGK:1,2010-01-02T00:24:00Z,27.6010,-82.7510,-0.066,1111122 
COMPS,ioos:station:USF.COMPS:EGK:1,2010-01-02T00:30:00Z,27.6010,-82.7510,-0.051,1111122 
COMPS,ioos:station:USF.COMPS:EGK:1,2010-01-02T00:36:00Z,27.6010,-82.7510,-0.038,1111122 
COMPS,ioos:station:USF.COMPS:EGK:1,2010-01-02T00:42:00Z,27.6010,-82.7510,-0.001,1111122 
COMPS,ioos:station:USF.COMPS:EGK:1,2010-01-02T00:48:00Z,27.6010,-82.7510,0.013,1111122 
COMPS,ioos:station:USF.COMPS:EGK:1,2010-01-02T00:54:00Z,27.6010,-82.7510,0.022,1111122 
COMPS,ioos:station:USF.COMPS:EGK:1,2010-01-02T01:00:00Z,27.6010,-82.7510,0.009,1111122 
COMPS,ioos:station:USF.COMPS:EGK:1,2010-01-02T01:06:00Z,27.6010,-82.7510,0.028,1111122 
COMPS,ioos:station:USF.COMPS:EGK:1,2010-01-02T01:12:00Z,27.6010,-82.7510,0.036,1111122 
COMPS,ioos:station:USF.COMPS:EGK:1,2010-01-02T01:18:00Z,27.6010,-82.7510,0.039,1111122 
COMPS,ioos:station:USF.COMPS:EGK:1,2010-01-02T01:24:00Z,27.6010,-82.7510,0.047,1111122 
COMPS,ioos:station:USF.COMPS:EGK:1,2010-01-02T01:30:00Z,27.6010,-82.7510,0.046,1111122 
COMPS,ioos:station:USF.COMPS:EGK:1,2010-01-02T01:36:00Z,27.6010,-82.7510,0.059,1111122 
COMPS,ioos:station:USF.COMPS:EGK:1,2010-01-02T01:42:00Z,27.6010,-82.7510,0.067,1111122 
COMPS,ioos:station:USF.COMPS:EGK:1,2010-01-02T01:48:00Z,27.6010,-82.7510,0.081,1111122 
COMPS,ioos:station:USF.COMPS:EGK:1,2010-01-02T01:54:00Z,27.6010,-82.7510,0.092,1111122 
COMPS,ioos:station:USF.COMPS:EGK:1,2010-01-02T02:00:00Z,27.6010,-82.7510,0.088,1111122 
COMPS,ioos:station:USF.COMPS:EGK:1,2010-01-02T02:06:00Z,27.6010,-82.7510,0.092,1111122 
COMPS,ioos:station:USF.COMPS:EGK:1,2010-01-02T02:12:00Z,27.6010,-82.7510,0.11,1111122 
COMPS,ioos:station:USF.COMPS:EGK:1,2010-01-02T02:18:00Z,27.6010,-82.7510,0.109,1111122 
COMPS,ioos:station:USF.COMPS:EGK:1,2010-01-02T02:24:00Z,27.6010,-82.7510,0.112,1111122 
COMPS,ioos:station:USF.COMPS:EGK:1,2010-01-02T02:30:00Z,27.6010,-82.7510,0.127,1111122 
COMPS,ioos:station:USF.COMPS:EGK:1,2010-01-02T02:36:00Z,27.6010,-82.7510,0.131,1111122 
COMPS,ioos:station:USF.COMPS:EGK:1,2010-01-02T02:42:00Z,27.6010,-82.7510,0.15,1111122 
COMPS,ioos:station:USF.COMPS:EGK:1,2010-01-02T02:48:00Z,27.6010,-82.7510,0.156,1111122 
COMPS,ioos:station:USF.COMPS:EGK:1,2010-01-02T02:54:00Z,27.6010,-82.7510,0.16,1111122 